Regional Weather Roundup
Issued by NWS

Home | Current Version | Previous Version | Graphics & Text | Print | Product List | Glossary On
Versions: 1 2 3 4 5 6 7 8 9 10 11 12 13 14 15 16 17 18 19 20 21 22 23 24 25 26 27 28 29 30 31 32 33 34 35 36 37 38 39 40 41 42 43 44 45 46 47 48 49 50
963
ASUS43 KBIS 282210
RWRND

NORTH DAKOTA REGIONAL WEATHER ROUNDUP
NATIONAL WEATHER SERVICE BISMARCK ND
500 PM CDT TUE MAR 28 2017

NOTE: "FAIR" INDICATES FEW OR NO CLOUDS BELOW 12,000 FEET WITH NO
SIGNIFICANT WEATHER AND/OR OBSTRUCTIONS TO VISIBILITY.


NDZ001>003-009>011-017-282300-
NORTHWEST NORTH DAKOTA

CITY           SKY/WX    TMP DP  RH WIND       PRES   REMARKS
WILLISTON      PTSUNNY   56  40  55 W9        30.05S
MINOT          FAIR      52  42  69 E16       30.08F
MINOT AFB      CLOUDY    46  41  85 E9        30.08F
$$

NDZ018>021-031>035-040>046-282300-
SOUTHWEST NORTH DAKOTA

CITY           SKY/WX    TMP DP  RH WIND       PRES   REMARKS
BISMARCK       FAIR      63  36  36 SE12      30.08S
DICKINSON      PTSUNNY   60  27  28 S10G18    30.01F
GARRISON         N/A     58  35  42 S10       30.06F
HETTINGER ARPT PTSUNNY   57  42  57 SE13      30.05R
$$

NDZ004>008-012>016-024-026-027-054-282300-
NORTHEAST NORTH DAKOTA

CITY           SKY/WX    TMP DP  RH WIND       PRES   REMARKS
GRAND FORKS    CLOUDY    54  43  66 NE9       30.17F
GRND FRKS AFB  CLOUDY    52  42  67 NE8       30.18F
DEVILS LAKE    FAIR      51  40  65 SE12      30.15F
$$

NDZ022-023-025-028>030-036>039-047>053-282300-
SOUTHEAST NORTH DAKOTA

CITY           SKY/WX    TMP DP  RH WIND       PRES   REMARKS
FARGO          MOSUNNY   58  41  53 NE8       30.14F
JAMESTOWN      FAIR      54  41  61 E8        30.12F
$$





USA.gov is the U.S. government's official web portal to all federal, state and local government web resources and services.